Regional Weather Roundup
Issued by NWS

Home | Current Version | Previous Version | Graphics & Text | Print | Product List | Glossary On
Versions: 1 2 3 4 5 6 7 8 9 10 11 12 13 14 15 16 17 18 19 20 21 22 23 24 25 26 27 28 29 30 31 32 33 34 35 36 37 38 39 40 41 42 43 44 45 46 47 48 49 50
000
ASUS43 KDTX 281810
RWRMI
MICHIGAN HOURLY REGIONAL WEATHER ROUNDUP
NATIONAL WEATHER SERVICE DETROIT/PONTIAC MI
200 PM EDT TUE MAR 28 2017

NOTE: "FAIR" INDICATES FEW OR NO CLOUDS BELOW 12,000 FEET WITH NO
SIGNIFICANT WEATHER AND/OR OBSTRUCTION TO VISIBILITY.

MIZ047>049-052>055-059>063-066>070-074>076-081>083-281900-
SOUTHEAST LOWER MICHIGAN

CITY           SKY/WX    TMP DP  RH WIND       PRES   REMARKS
ADRIAN         CLOUDY    47  40  76 NE9       30.07S
6HR MIN TEMP:  44; 6HR MAX TEMP:  47;

ALMA           CLOUDY    44  38  78 NE5       30.13R
ANN ARBOR      CLOUDY    47  39  74 N12       30.06S
BAD AXE        CLOUDY    41  35  77 NE12      30.11R
6HR MIN TEMP:  36; 6HR MAX TEMP:  42;

CARO           CLOUDY    42  37  80 N10G17    30.10S
DETROIT CITY   CLOUDY    46  38  73 N12       30.07R
6HR MIN TEMP:  42; 6HR MAX TEMP:  46;

DETROIT        CLOUDY    48  38  68 N9        30.07R
6HR MIN TEMP:  43; 6HR MAX TEMP:  49;

FLINT          CLOUDY    42  37  82 N13       30.10S
6HR MIN TEMP:  39; 6HR MAX TEMP:  43;

GROSSE ILE     CLOUDY    47  38  73 NE12      30.05S
6HR MIN TEMP:  42; 6HR MAX TEMP:  48;

HILLSDALE      CLOUDY    45  37  76 N7        30.06R
HOWELL         CLOUDY    43  37  81 N8        30.08S
6HR MIN TEMP:  40; 6HR MAX TEMP:  43;


CITY           SKY/WX    TMP DP  RH WIND       PRES   REMARKS
JACKSON        CLOUDY    46  37  71 NE13      30.08R
6HR MIN TEMP:  43; 6HR MAX TEMP:  47;

LAMBERTVILLE   CLOUDY    49  40  71 N7        30.05S
6HR MIN TEMP:  45; 6HR MAX TEMP:  50;

LANSING        CLOUDY    44  36  73 NE9       30.12R
6HR MIN TEMP:  40; 6HR MAX TEMP:  44;

LAPEER         CLOUDY    42  37  79 NE10      30.08S
6HR MIN TEMP:  38; 6HR MAX TEMP:  42;

MASON          CLOUDY    43  38  85 N9        30.10R
MONROE         CLOUDY    48  41  77 N10       30.06R
MT. CLEMENS    CLOUDY    44  40  85 N17       30.05S
6HR MIN TEMP:  40; 6HR MAX TEMP:  44;

PONTIAC        CLOUDY    43  37  79 N10       30.06S
6HR MIN TEMP:  40; 6HR MAX TEMP:  44;

PORT HOPE        N/A     39  34  82 N8        30.10S WCI  33
6HR MIN TEMP:  35; 6HR MAX TEMP:  41;

PORT HURON     MOSUNNY   43  34  70 N12G22    30.07S
TRI CITIES     CLOUDY    43  36  76 NE13      30.13S
6HR MIN TEMP:  39; 6HR MAX TEMP:  43;

MIDLAND        CLOUDY    43  35  73 E7        30.12S
6HR MIN TEMP:  39; 6HR MAX TEMP:  43;

TROY           CLOUDY    45  37  74 N10       30.08S
SAGINAW HB     CLOUDY    43  34  70 N16       30.12S
$$
MIZ043>046-050>051-056>058-064>065-071>073-077>080-281900-
SOUTHWEST LOWER MICHIGAN

CITY           SKY/WX    TMP DP  RH WIND       PRES   REMARKS
BATTLE CREEK   CLOUDY    46  39  76 NE10      30.09R
6HR MIN TEMP:  43; 6HR MAX TEMP:  47; 6HR PCP: TRACE;

BENTON HARBOR  CLOUDY    42  36  79 N6        30.11S
6HR MIN TEMP:  38; 6HR MAX TEMP:  45;

BIG RAPIDS     MOSUNNY   47  35  62 E5        30.12R
6HR MIN TEMP:  37; 6HR MAX TEMP:  47;

COLDWATER      CLOUDY    46  40  78 N8        30.08R
6HR MIN TEMP:  44; 6HR MAX TEMP:  46;

FREMONT        CLOUDY    47  36  67 NE6       30.11F
HOLLAND        CLOUDY    47  38  71 E6        30.12S
6HR MIN TEMP:  41; 6HR MAX TEMP:  48;

GRAND RAPIDS   CLOUDY    46  40  79 NE10      30.10S
6HR MIN TEMP:  40; 6HR MAX TEMP:  46; 6HR PCP: TRACE;

IONIA          CLOUDY    43  37  79 NE10      30.11R
6HR MIN TEMP:  38; 6HR MAX TEMP:  43;

KALAMAZOO      CLOUDY    48  37  65 E5        30.09S
6HR MIN TEMP:  44; 6HR MAX TEMP:  47; 6HR PCP: TRACE;

LUDINGTON      MOSUNNY   49  38  65 NE7       30.12F
6HR MIN TEMP:  36; 6HR MAX TEMP:  49;

MARSHALL       CLOUDY    46  39  76 N6        30.09R
6HR MIN TEMP:  42; 6HR MAX TEMP:  46;

MOUNT PLEASANT CLOUDY    47  36  64 NW5       30.11S
6HR MIN TEMP:  38; 6HR MAX TEMP:  47;

MUSKEGON       CLOUDY    50  38  63 VRB5      30.12F
6HR MIN TEMP:  40; 6HR MAX TEMP:  50;

SOUTH HAVEN    CLOUDY    43  38  84 NW8       30.10S
$$
MIZ016>042-281900-
NORTHERN LOWER MICHIGAN

CITY           SKY/WX    TMP DP  RH WIND       PRES   REMARKS
ALPENA         SUNNY     48  32  53 N10       30.13S
6HR MIN TEMP:  37; 6HR MAX TEMP:  49;

BEAVER ISLAND  SUNNY     40  35  82 NW7       30.18S WCI  35
6HR MIN TEMP:  33; 6HR MAX TEMP:  41;

BELLAIRE       SUNNY     48  34  58 N5        30.15R
6HR MIN TEMP:  34; 6HR MAX TEMP:  48;

CADILLAC       SUNNY     48  34  59 NE6       30.10S
CHARLEVOIX     CLOUDY    37  35  94 N8        30.20R WCI  31
6HR MIN TEMP:  34; 6HR MAX TEMP:  40;

FRANKFORT      SUNNY     43  35  74 N8        30.16R
GAYLORD        SUNNY     47  32  56 VRB5      30.12R
6HR MIN TEMP:  35; 6HR MAX TEMP:  47;

GRAYLING       SUNNY     48  32  53 NE7       30.11S
HARBOR SPRINGS SUNNY     41  35  77 SW9       30.16R
HOUGHTON LAKE  SUNNY     45  35  68 SW8       30.11S
6HR MIN TEMP:  35; 6HR MAX TEMP:  48;

MANISTEE       MOSUNNY   45  37  73 NW13      30.15R
OSCODA         SUNNY     45  32  60 NE12      30.12S
6HR MIN TEMP:  38; 6HR MAX TEMP:  46;

PELLSTON       SUNNY     49  30  48 VRB3      30.15S
6HR MIN TEMP:  35; 6HR MAX TEMP:  49;

ROGERS CITY    SUNNY     40  34  79 N8        30.16S WCI  35
TRAVERSE CITY  MOSUNNY   43  35  73 NW9       30.16R
6HR MIN TEMP:  34; 6HR MAX TEMP:  44; 6HR PCP: TRACE;

$$
MIZ007>008-015-281900-
EASTERN UPPER MICHIGAN

CITY           SKY/WX    TMP DP  RH WIND       PRES   REMARKS
KINROSS        SUNNY     42  33  70 CALM      30.15F
6HR MIN TEMP:  33; 6HR MAX TEMP:  42;

MACKINAC ISLAN SUNNY     40  34  79 W3        30.15S
6HR MIN TEMP:  32; 6HR MAX TEMP:  43;

NEWBERRY       SUNNY     45  37  71 SW5       30.15F
6HR MIN TEMP:  31; 6HR MAX TEMP:  46;

S. S. MARIE    SUNNY     43  33  68 SW6       30.14S
6HR MIN TEMP:  34; 6HR MAX TEMP:  43;

MUNISING         N/A     43  34  70 CALM      30.16F
6HR MIN TEMP:  30; 6HR MAX TEMP:  44;

$$
MIZ004>006-011>014-085-281900-
CENTRAL UPPER MICHIGAN

CITY           SKY/WX    TMP DP  RH WIND       PRES   REMARKS
MANISTIQUE     SUNNY     40  37  86 S5        30.17S
6HR MIN TEMP:  31; 6HR MAX TEMP:  41;

ESCANABA       SUNNY     38  33  82 S8        30.19S WCI  32
6HR MIN TEMP:  27; 6HR MAX TEMP:  38;

MENOMINEE        N/A    N/A N/A N/A MISG        N/A
SAWYER-GWINN   SUNNY     50  30  46 CALM      30.15S
$$
MIZ001>003-009>011-084-281900-
WESTERN UPPER MICHIGAN

CITY           SKY/WX    TMP DP  RH WIND       PRES   REMARKS
IRON MOUNTAIN  SUNNY     53  30  41 S5        30.14S
6HR MIN TEMP:  23; 6HR MAX TEMP:  54;

HOUGHTON       MOSUNNY   47  32  56 NW12      30.17R
6HR MIN TEMP:  30; 6HR MAX TEMP:  48;

COPPER HARBOR    N/A     40  33  76 N10       30.18R WCI  33
6HR MIN TEMP:  29; 6HR MAX TEMP:  40;

IRONWOOD       SUNNY     55  29  36 CALM      30.16S
6HR MIN TEMP:  22; 6HR MAX TEMP:  56;

$$

ABBREVIATIONS USED IN REMARKS
   TC - TEMPERATURE IN CELSIUS
  WCI - WIND CHILL INDEX
   HX - HEAT INDEX
  VSB - VISIBILITY




USA.gov is the U.S. government's official web portal to all federal, state and local government web resources and services.